Frederick, OK

1:39 AM CDT on August 23, 2017 (GMT -0500)
Frederick Municipal

Weather History for KFDR - November, 2013

Change the Weather History Date:

Sunday, November 17, 2013

  Actual Average (KLTS) Record (KLTS)
Temperature  
Mean Temperature 64 °F -  
Max Temperature 75 °F 59 °F 80 °F (1999)
Min Temperature 54 °F 37 °F 18 °F (2014)
Growing Degree Days 14 (Base 50)    
Moisture  
Dew Point 39 °F    
Average Humidity 44    
Maximum Humidity 87    
Minimum Humidity 18    
Precipitation  
Precipitation 0.00 in - - ()
Sea Level Pressure  
Sea Level Pressure 29.77 in    
Wind  
Wind Speed 14 mph (NW)    
Max Wind Speed 22 mph    
Max Gust Speed 28 mph    
Visibility 10 miles    
Events      
Averages and records for this station are not official NWS values.
T = Trace of Precipitation, MM = Missing Value Source: NWS Daily Summary

Daily Weather History Graph

Daily Weather History Graph

Search for Another Location

Airport or City:

Trip Planner

Search our weather history database for the weather conditions in past years. The results will help you decide how hot, cold, wet, or windy it might be!

Date:

Astronomy

Nov. 17, 2013 Rise Set
Actual Time 7:11 AM CST 5:30 PM CST
Civil Twilight 6:44 AM CST 5:57 PM CST
Nautical Twilight 6:14 AM CST 6:27 PM CST
Astronomical Twilight 5:44 AM CST 6:57 PM CST
Moon 5:48 PM CST (11/17) 7:07 AM CST (11/17)
Length of Visible Light 11h 12m
Length of Day
10h 19m
Full, 100% of the Moon is Illuminated
Nov 17
Full
Nov 25
Last Quarter
Dec 2
New
Dec 9
First Quarter
Dec 17
Full

Hourly Weather History & Observations

Time (CST) Temp. Dew Point Humidity Pressure Visibility Wind Dir Wind Speed Gust Speed Precip Events Conditions
12:53 AM 66.9 °F 54.0 °F 63% 29.55 in 10.0 mi SSW 16.1 mph - N/A   Clear
1:53 AM 66.0 °F 54.0 °F 65% 29.55 in 10.0 mi SSW 17.3 mph - N/A   Clear
2:53 AM 64.9 °F 55.0 °F 70% 29.55 in 10.0 mi SSW 17.3 mph - N/A   Clear
3:53 AM 64.0 °F 55.0 °F 73% 29.56 in 10.0 mi SW 18.4 mph - N/A   Clear
4:53 AM 61.0 °F 54.0 °F 78% 29.58 in 10.0 mi SW 12.7 mph - N/A   Clear
5:53 AM 57.9 °F 53.1 °F 84% 29.60 in 10.0 mi SW 10.4 mph - N/A   Clear
6:53 AM 57.0 °F 52.0 °F 83% 29.64 in 10.0 mi SW 9.2 mph - N/A   Clear
7:53 AM 55.9 °F 52.0 °F 87% 29.70 in 10.0 mi SW 5.8 mph - N/A   Clear
8:53 AM 64.0 °F 46.0 °F 52% 29.71 in 10.0 mi West 11.5 mph - N/A   Clear
9:53 AM 73.0 °F 33.1 °F 23% 29.74 in 10.0 mi WNW 21.9 mph 27.6 mph N/A   Clear
10:53 AM 73.0 °F 30.0 °F 20% 29.77 in 10.0 mi NW 16.1 mph 25.3 mph N/A   Clear
11:53 AM 73.9 °F 32.0 °F 21% 29.78 in 10.0 mi WNW 10.4 mph - N/A   Clear
12:53 PM 75.9 °F 30.0 °F 19% 29.78 in 10.0 mi NW 10.4 mph - N/A   Clear
1:53 PM 75.9 °F 28.9 °F 18% 29.78 in 10.0 mi North 12.7 mph 18.4 mph N/A   Clear
2:53 PM 75.9 °F 28.9 °F 18% 29.79 in 10.0 mi Variable 5.8 mph - N/A   Clear
3:53 PM 75.9 °F 30.0 °F 19% 29.81 in 10.0 mi North 10.4 mph - N/A   Clear
4:53 PM 73.0 °F 30.9 °F 21% 29.84 in 10.0 mi North 10.4 mph - N/A   Clear
5:53 PM 64.0 °F 33.1 °F 31% 29.87 in 10.0 mi North 10.4 mph - N/A   Clear
6:53 PM 60.1 °F 34.0 °F 38% 29.91 in 10.0 mi NE 11.5 mph - N/A   Clear
7:53 PM 59.0 °F 32.0 °F 36% 29.94 in 10.0 mi NE 13.8 mph - N/A   Clear
8:53 PM 55.9 °F 32.0 °F 40% 29.96 in 10.0 mi NE 10.4 mph - N/A   Clear
9:53 PM 54.0 °F 30.9 °F 41% 29.99 in 10.0 mi NE 11.5 mph - N/A   Clear
10:53 PM 55.9 °F 28.0 °F 34% 30.02 in 10.0 mi ENE 16.1 mph - N/A   Clear
11:53 PM 54.0 °F 23.0 °F 30% 30.03 in 10.0 mi ENE 12.7 mph - N/A   Clear